CMP365 SKCG-MPTO

Flight info

Callsign CMP365
Flight time 0h 50m
Altitude 32000
Route CTG2D CTG UL335 BOGAL
Aircraft B738/M-SDE3FGHIRWY/S

Departure

Time 2026-04-23 02:36
Airport Rafael Nuñez International Airport (SKCG)

Arrival

Time 2026-04-23 03:26
Airport Tocumen International Airport (MPTO)
Time Latitude Longitude Altitude Speed Heading
2026-04-23 02:20 10.44727 -75.51542 50 ft 0 kts 272°
2026-04-23 02:29 10.44725 -75.51518 50 ft 4 kts 287°
2026-04-23 02:29 10.44713 -75.51498 48 ft 4 kts 343°
2026-04-23 02:30 10.44691 -75.51496 46 ft 4 kts 355°
2026-04-23 02:30 10.44666 -75.51489 45 ft 4 kts 323°
2026-04-23 02:30 10.44648 -75.51473 46 ft 4 kts 304°
2026-04-23 02:30 10.44637 -75.51448 46 ft 4 kts 278°
2026-04-23 02:31 10.44635 -75.51423 46 ft 2 kts 272°
2026-04-23 02:31 10.44635 -75.51421 46 ft 0 kts 272°
2026-04-23 02:33 10.44636 -75.51423 46 ft 1 kts 272°
2026-04-23 02:33 10.44620 -75.51444 47 ft 7 kts 198°
2026-04-23 02:33 10.44588 -75.51393 50 ft 12 kts 112°
2026-04-23 02:33 10.44535 -75.51298 50 ft 18 kts 129°
2026-04-23 02:34 10.44395 -75.51283 50 ft 24 kts 182°
2026-04-23 02:34 10.44206 -75.51289 50 ft 30 kts 181°
2026-04-23 02:34 10.43981 -75.51312 47 ft 35 kts 197°
2026-04-23 02:34 10.43726 -75.51303 50 ft 39 kts 183°
2026-04-23 02:35 10.43446 -75.51321 50 ft 41 kts 182°
2026-04-23 02:35 10.43187 -75.51274 50 ft 38 kts 134°
2026-04-23 02:35 10.43042 -75.51304 50 ft 28 kts 294°
2026-04-23 02:35 10.43218 -75.51335 50 ft 26 kts
2026-04-23 02:36 10.43438 -75.51322 50 ft 56 kts
2026-04-23 02:36 10.44070 -75.51297 50 ft 125 kts
2026-04-23 02:36 10.45139 -75.51257 71 ft 179 kts
2026-04-23 02:36 10.46377 -75.51229 831 ft 179 kts
2026-04-23 02:37 10.47642 -75.51156 1633 ft 185 kts
2026-04-23 02:37 10.48990 -75.51113 2221 ft 207 kts
2026-04-23 02:37 10.50526 -75.51062 2463 ft 236 kts
2026-04-23 02:37 10.52266 -75.51000 2886 ft 258 kts
2026-04-23 02:38 10.54083 -75.51103 3747 ft 265 kts 349°
2026-04-23 02:38 10.55850 -75.51702 4623 ft 272 kts 334°
2026-04-23 02:38 10.57427 -75.52792 5490 ft 276 kts 317°
2026-04-23 02:38 10.58656 -75.54302 6378 ft 280 kts 301°
2026-04-23 02:39 10.59418 -75.56128 7204 ft 283 kts 284°
2026-04-23 02:39 10.59631 -75.58125 8039 ft 286 kts 267°
2026-04-23 02:39 10.59264 -75.60112 8875 ft 289 kts 250°
2026-04-23 02:39 10.58334 -75.61932 9704 ft 293 kts 233°
2026-04-23 02:40 10.56901 -75.63421 10411 ft 300 kts 217°
2026-04-23 02:40 10.55009 -75.64484 10620 ft 325 kts 199°
2026-04-23 02:40 10.52721 -75.64880 10907 ft 343 kts 179°
2026-04-23 02:40 10.50359 -75.64435 11523 ft 350 kts 159°
2026-04-23 02:41 10.48131 -75.63414 12262 ft 352 kts 154°
2026-04-23 02:41 10.45919 -75.62311 12967 ft 356 kts 154°
2026-04-23 02:41 10.43678 -75.61205 13651 ft 361 kts 155°
2026-04-23 02:41 10.41398 -75.60108 14264 ft 364 kts 155°
2026-04-23 02:42 10.39089 -75.59022 14893 ft 367 kts 155°
2026-04-23 02:42 10.36753 -75.57938 15524 ft 370 kts 155°
2026-04-23 02:42 10.34402 -75.56854 16141 ft 373 kts 155°
2026-04-23 02:42 10.32024 -75.55761 16727 ft 377 kts 155°
2026-04-23 02:43 10.29623 -75.54657 17321 ft 380 kts 155°
2026-04-23 02:43 10.27139 -75.53713 17877 ft 386 kts 168°
2026-04-23 02:43 10.24445 -75.53661 18388 ft 392 kts 189°
2026-04-23 02:43 10.21869 -75.54540 18968 ft 393 kts 208°
2026-04-23 02:44 10.19718 -75.56242 19519 ft 395 kts 227°
2026-04-23 02:44 10.18137 -75.58528 19994 ft 400 kts 245°
2026-04-23 02:44 10.17156 -75.61139 20475 ft 403 kts 250°
2026-04-23 02:44 10.16264 -75.63844 20962 ft 405 kts 251°
2026-04-23 02:45 10.15395 -75.66576 21454 ft 408 kts 252°
2026-04-23 02:45 10.14522 -75.69322 21936 ft 410 kts 251°
2026-04-23 02:45 10.13637 -75.72078 22425 ft 412 kts 251°
2026-04-23 02:45 10.12735 -75.74853 22902 ft 415 kts 251°
2026-04-23 02:46 10.11820 -75.77640 23358 ft 417 kts 251°
2026-04-23 02:46 10.10894 -75.80441 23771 ft 419 kts 251°
2026-04-23 02:46 10.09963 -75.83246 24155 ft 421 kts 251°
2026-04-23 02:46 10.09026 -75.86064 24532 ft 422 kts 251°
2026-04-23 02:47 10.08081 -75.88903 24924 ft 424 kts 250°
2026-04-23 02:47 10.07137 -75.91739 25317 ft 425 kts 250°
2026-04-23 02:47 10.06190 -75.94582 25692 ft 426 kts 250°
2026-04-23 02:47 10.05241 -75.97437 26124 ft 426 kts 250°
2026-04-23 02:48 10.04290 -76.00292 26440 ft 429 kts 250°
2026-04-23 02:48 10.03330 -76.03172 26734 ft 432 kts 250°
2026-04-23 02:48 10.02366 -76.06062 27101 ft 433 kts 250°
2026-04-23 02:48 10.01398 -76.08960 27446 ft 435 kts 251°
2026-04-23 02:49 10.00437 -76.11838 27716 ft 438 kts 251°
2026-04-23 02:49 9.99459 -76.14770 28072 ft 439 kts 250°
2026-04-23 02:49 9.98484 -76.17690 28604 ft 435 kts 250°
2026-04-23 02:49 9.97517 -76.20587 29158 ft 432 kts 250°
2026-04-23 02:50 9.96555 -76.23469 29573 ft 432 kts 250°
2026-04-23 02:50 9.95593 -76.26348 29992 ft 431 kts 250°
2026-04-23 02:50 9.94628 -76.29235 30300 ft 432 kts 251°
2026-04-23 02:50 9.93665 -76.32114 30743 ft 429 kts 250°
2026-04-23 02:51 9.92707 -76.34976 31179 ft 427 kts 250°
2026-04-23 02:51 9.91752 -76.37830 31452 ft 430 kts 250°
2026-04-23 02:51 9.90785 -76.40720 31619 ft 434 kts 250°
2026-04-23 02:51 9.89815 -76.43617 31943 ft 434 kts 250°
2026-04-23 02:52 9.88837 -76.46536 31938 ft 441 kts 250°
2026-04-23 02:52 9.86837 -76.52501 31964 ft 451 kts 250°
2026-04-23 02:53 9.84795 -76.58591 31971 ft 461 kts 250°
2026-04-23 02:53 9.82713 -76.64799 31967 ft 469 kts 250°
2026-04-23 02:54 9.80600 -76.71094 31969 ft 474 kts 250°
2026-04-23 02:54 9.78466 -76.77453 31962 ft 477 kts 250°
2026-04-23 02:55 9.76327 -76.83817 31961 ft 477 kts 250°
2026-04-23 02:55 9.74193 -76.90145 31961 ft 477 kts 250°
2026-04-23 02:56 9.72053 -76.96501 31964 ft 476 kts 250°
2026-04-23 02:56 9.69915 -77.02849 31968 ft 475 kts 250°
2026-04-23 02:57 9.67776 -77.09196 31967 ft 475 kts 250°
2026-04-23 02:57 9.65641 -77.15527 31964 ft 475 kts 250°
2026-04-23 02:58 9.63507 -77.21848 31970 ft 474 kts 250°
2026-04-23 02:58 9.61370 -77.28176 31975 ft 474 kts 250°
2026-04-23 02:59 9.59238 -77.34485 31964 ft 474 kts 250°
2026-04-23 02:59 9.57113 -77.40772 31978 ft 475 kts 250°
2026-04-23 03:00 9.54852 -77.47074 31977 ft 476 kts 248°
2026-04-23 03:00 9.52435 -77.53318 31979 ft 476 kts 248°
2026-04-23 03:01 9.50021 -77.59570 31976 ft 476 kts 248°
2026-04-23 03:01 9.47633 -77.65828 31974 ft 476 kts 248°
2026-04-23 03:02 9.45256 -77.72084 31980 ft 475 kts 248°
2026-04-23 03:02 9.44087 -77.75162 31959 ft 459 kts 248°
2026-04-23 03:02 9.42961 -77.78127 31961 ft 443 kts 248°
2026-04-23 03:02 9.41871 -77.80993 31961 ft 428 kts 248°
2026-04-23 03:03 9.40818 -77.83762 31857 ft 417 kts 248°
2026-04-23 03:03 9.39780 -77.86486 31590 ft 411 kts 248°
2026-04-23 03:03 9.38755 -77.89176 31206 ft 408 kts 248°
2026-04-23 03:03 9.37737 -77.91848 30850 ft 405 kts 248°
2026-04-23 03:04 9.36727 -77.94495 30473 ft 402 kts 248°
2026-04-23 03:04 9.35722 -77.97134 30099 ft 400 kts 248°
2026-04-23 03:04 9.34722 -77.99755 29658 ft 398 kts 248°
2026-04-23 03:04 9.33729 -78.02360 29232 ft 395 kts 248°
2026-04-23 03:05 9.32755 -78.04914 28825 ft 392 kts 248°
2026-04-23 03:05 9.31778 -78.07476 28426 ft 389 kts 248°
2026-04-23 03:05 9.30806 -78.10024 28027 ft 386 kts 248°
2026-04-23 03:05 9.29842 -78.12550 27638 ft 384 kts 248°
2026-04-23 03:06 9.28883 -78.15062 27251 ft 381 kts 248°
2026-04-23 03:06 9.27931 -78.17556 26874 ft 379 kts 248°
2026-04-23 03:06 9.27067 -78.20067 26481 ft 378 kts 257°
2026-04-23 03:06 9.26860 -78.22716 26126 ft 376 kts 268°
2026-04-23 03:07 9.26848 -78.25357 25732 ft 375 kts 269°
2026-04-23 03:07 9.26849 -78.27147 25485 ft 375 kts 269°
2026-04-23 03:07 9.26849 -78.29745 25093 ft 374 kts 269°
2026-04-23 03:07 9.26841 -78.32378 24719 ft 373 kts 268°
2026-04-23 03:08 9.26826 -78.35008 24331 ft 373 kts 268°
2026-04-23 03:08 9.26805 -78.37634 23951 ft 373 kts 268°
2026-04-23 03:08 9.26779 -78.40265 23558 ft 373 kts 268°
2026-04-23 03:08 9.26750 -78.42890 23123 ft 372 kts 268°
2026-04-23 03:09 9.26721 -78.45506 22725 ft 371 kts 268°
2026-04-23 03:09 9.26690 -78.48105 22342 ft 369 kts 268°
2026-04-23 03:09 9.26660 -78.50692 21967 ft 367 kts 268°
2026-04-23 03:09 9.26629 -78.53267 21597 ft 365 kts 268°
2026-04-23 03:10 9.26599 -78.55829 21238 ft 363 kts 268°
2026-04-23 03:10 9.26568 -78.58380 20869 ft 361 kts 268°
2026-04-23 03:10 9.26537 -78.60918 20506 ft 360 kts 269°
2026-04-23 03:10 9.26506 -78.63445 20148 ft 358 kts 269°
2026-04-23 03:11 9.26475 -78.65962 19785 ft 357 kts 269°
2026-04-23 03:11 9.26444 -78.68469 19417 ft 356 kts 269°
2026-04-23 03:11 9.26413 -78.70974 19034 ft 356 kts 269°
2026-04-23 03:11 9.26382 -78.73476 18663 ft 355 kts 269°
2026-04-23 03:12 9.26351 -78.75973 18304 ft 354 kts 269°
2026-04-23 03:12 9.26320 -78.78462 17899 ft 354 kts 269°
2026-04-23 03:12 9.26288 -78.80945 17520 ft 352 kts 269°
2026-04-23 03:12 9.26258 -78.83379 17158 ft 350 kts 269°
2026-04-23 03:13 9.26226 -78.85835 16789 ft 348 kts 269°
2026-04-23 03:13 9.26195 -78.88275 16435 ft 346 kts 269°
2026-04-23 03:13 9.26163 -78.90701 16086 ft 344 kts 269°
2026-04-23 03:13 9.26132 -78.93116 15733 ft 342 kts 269°
2026-04-23 03:14 9.26101 -78.95516 15383 ft 340 kts 269°
2026-04-23 03:14 9.26069 -78.97908 15038 ft 339 kts 269°
2026-04-23 03:14 9.26038 -79.00285 14685 ft 337 kts 268°
2026-04-23 03:14 9.26007 -79.02659 14335 ft 336 kts 269°
2026-04-23 03:15 9.25975 -79.05020 13978 ft 335 kts 269°
2026-04-23 03:15 9.25944 -79.07378 13626 ft 334 kts 269°
2026-04-23 03:15 9.25912 -79.09722 13245 ft 332 kts 269°
2026-04-23 03:15 9.25724 -79.12025 13026 ft 324 kts 254°
2026-04-23 03:16 9.24757 -79.14036 12762 ft 318 kts 232°
2026-04-23 03:16 9.23167 -79.15578 12381 ft 317 kts 215°
2026-04-23 03:16 9.19486 -79.18045 11618 ft 317 kts 212°
2026-04-23 03:17 9.17633 -79.19251 11228 ft 317 kts 212°
2026-04-23 03:17 9.15778 -79.20468 10844 ft 318 kts 213°
2026-04-23 03:17 9.13925 -79.21692 10473 ft 318 kts 213°
2026-04-23 03:17 9.12070 -79.22926 10090 ft 319 kts 213°
2026-04-23 03:18 9.10268 -79.24129 10019 ft 301 kts 213°
2026-04-23 03:18 9.08588 -79.25252 9752 ft 290 kts 213°
2026-04-23 03:18 9.06869 -79.26402 9133 ft 298 kts 213°
2026-04-23 03:18 9.05128 -79.27569 8672 ft 302 kts 213°
2026-04-23 03:19 9.03373 -79.28742 8297 ft 303 kts 213°
2026-04-23 03:19 9.01593 -79.29898 7884 ft 305 kts 210°
2026-04-23 03:19 8.99734 -79.30942 7484 ft 306 kts 208°
2026-04-23 03:19 8.97846 -79.31952 7078 ft 308 kts 207°
2026-04-23 03:20 8.95942 -79.32970 6648 ft 310 kts 208°
2026-04-23 03:20 8.94029 -79.34004 6221 ft 312 kts 208°
2026-04-23 03:20 8.92112 -79.35049 5777 ft 314 kts 208°
2026-04-23 03:20 8.90188 -79.36100 5352 ft 315 kts 208°
2026-04-23 03:21 8.88269 -79.37167 4923 ft 315 kts 212°
2026-04-23 03:21 8.86684 -79.38677 4464 ft 316 kts 238°
2026-04-23 03:21 8.85908 -79.40731 4094 ft 312 kts 263°
2026-04-23 03:21 8.86002 -79.42875 3828 ft 300 kts 286°
2026-04-23 03:22 8.86784 -79.44746 3591 ft 282 kts 303°
2026-04-23 03:22 8.87806 -79.46387 3345 ft 269 kts 310°
2026-04-23 03:22 8.89193 -79.47516 3090 ft 251 kts 345°
2026-04-23 03:22 8.90844 -79.47524 2851 ft 234 kts 23°
2026-04-23 03:23 8.92193 -79.46696 2666 ft 223 kts 34°
2026-04-23 03:23 8.93470 -79.45856 2454 ft 214 kts 32°
2026-04-23 03:23 8.94707 -79.45087 2222 ft 203 kts 31°
2026-04-23 03:23 8.95881 -79.44376 1995 ft 189 kts 31°
2026-04-23 03:24 8.96965 -79.43710 1732 ft 176 kts 30°
2026-04-23 03:24 8.97991 -79.43115 1546 ft 163 kts 29°
2026-04-23 03:24 8.98935 -79.42577 1296 ft 154 kts 29°
2026-04-23 03:24 8.99841 -79.42061 1097 ft 146 kts 29°
2026-04-23 03:25 9.00724 -79.41560 942 ft 147 kts 30°
2026-04-23 03:25 9.01629 -79.41044 770 ft 152 kts 30°
2026-04-23 03:25 9.02550 -79.40521 572 ft 152 kts 30°
2026-04-23 03:25 9.03471 -79.39997 370 ft 151 kts 30°
2026-04-23 03:26 9.04388 -79.39475 167 ft 152 kts 30°
2026-04-23 03:26 9.05298 -79.38958 34 ft 143 kts 28°
2026-04-23 03:26 9.06026 -79.38544 31 ft 89 kts 30°
2026-04-23 03:26 9.06383 -79.38379 29 ft 25 kts
2026-04-23 03:27 9.06512 -79.38374 29 ft 20 kts
2026-04-23 03:27 9.06641 -79.38394 29 ft 18 kts 306°
2026-04-23 03:27 9.06587 -79.38488 29 ft 18 kts 207°
2026-04-23 03:27 9.06481 -79.38545 29 ft 17 kts 210°
2026-04-23 03:28 9.06382 -79.38603 29 ft 16 kts 210°
2026-04-23 03:28 9.06348 -79.38690 29 ft 16 kts 300°
2026-04-23 03:28 9.06366 -79.38790 29 ft 15 kts 236°
2026-04-23 03:28 9.06310 -79.38817 29 ft 1 kts 234°
2026-04-23 03:29 9.06300 -79.38843 29 ft 9 kts 268°
2026-04-23 03:29 9.06305 -79.38883 29 ft 2 kts 281°
2026-04-23 03:29 9.06305 -79.38884 29 ft 0 kts 281°
2026-04-23 03:29 9.06305 -79.38883 29 ft 0 kts 281°